STARLINK-32497, 62161

Orbit data source: Space-Track

STARLINK-32497, 62161 is a payload satellite owned by SpaceX/Seattle (US) in LEO that was launched on Sat, 30 Nov 2024 UTC via an FALCON 9 launch vehicle from the Air Force Eastern Test Range (AFETR). Payload-class satellites include a variety of spacecraft equipped with specific instruments for various scientific and technological missions. These include communications satellites like Starlink; space stations such as the ISS; scientific satellites like the Hubble; Earth observation satellites from companies like Planet Labs, Umbra, and HawkEye 360; GPS; miniature CubeSats for education and research; and military/defense satellites.

Loading next visibility...
Identifier
62161, 2024-224Y
Orbit
LEO
Country
Flag of USUS
Related business
Manufacturer
SpaceX/Seattle
Mission
Operational Commercial Communications
Bus & Motor
STARLINK V2M, Unknown motor
Mass
730 kg wet, ~700 kg dry
Launch date (UTC)
2024-11-30 (2 years ago)
Launch vehicle
FALCON 9
Launch site
Air Force Eastern Test Range (AFETR)
Object type
Payload
Rocket body
Debris
Shape & HBR
Box + 2 Pan, 17.7 m
Radar Cross Section
33.884 m², Large (>1 m²)

Expand to show TLE details & history
Last TLE update: 1 day ago

TLE from 1 day ago
0 STARLINK-32497
1 62161U 24224Y   26170.64354946  .00013537  00000-0  50026-3 0  9992
2 62161  43.0113 305.6936 0004276 277.9223  82.1143 15.27595245 88025
Epoch: 2026-06-19T15:26Z
TLE epoch observation values (Epoch: 2026-06-19T15:26:42.673Z)
Latitude
-0.00004°
Longitude
166.14617°
Altitude
482.379 km
Speed
7.626 km/s
True Right ascension
20h 22m 46s
True Declination
0° 00' 00"
Sunlit
Object was in full shadow at epoch
Visualization orbit readout
Latitude
Unknown
Longitude
Unknown
Altitude
Unknown
Speed
Unknown
Apparent Right ascension
Unknown
Apparent Declination
Unknown
Sunlit
N/A
Visualization observer readout
Local Sidereal Time
07:20:51
Azimuth
Unknown
Elevation
Unknown
Doppler factor
Unknown
Orbital elements
Apogee altitude
487.881 km
Perigee altitude
482.012 km
Semi-major axis
6,863.084 km
Eccentricity
0.00043
Inclination
43.0113°
RAAN
305.6936°
Arg. of periapsis
277.9223°
True anomaly
82.16284°
Mean anomaly
82.1143°
Eccentric anomaly
82.13857°
Mean motion
3.81737 °/min
Orbital period
94.31 mins
BSTAR
0.00050026
Loading maneuver chart data...
Computing Atmospheric mass density...
Loading historical data...
Loading historical data...
Loading historical data...
Loading historical data...
Loading historical data...
Loading historical data...
Loading historical data...

Documentation

Showing up to 5 results
|